This is the latest recevied weather packets stored in our database for station/object EA1BVF-10. If no packets are shown the sender has not sent any weather packets the latest 10 day(s).
| Time | Temp. | Humidity | Pressure | Rain* | Wind** | Luminosity | Snow |
|---|---|---|---|---|---|---|---|
| 1777707242 | 14.44° C | 77% | 1031.3 hPa | - | - | - | - |
| 1777705442 | 14.44° C | 77% | 1031 hPa | - | - | - | - |
| 1777703642 | 15° C | 77% | 1031.1 hPa | - | - | - | - |
| 1777701903 | 15° C | 78% | 1030.9 hPa | - | - | - | - |
| 1777701842 | 15° C | 78% | 1030.9 hPa | - | - | - | - |
| 1777701595 | 15° C | 77% | 1030.8 hPa | - | - | - | - |
| 1777701350 | 14.44° C | 78% | 1030.8 hPa | - | - | - | - |
| 1777701052 | 14.44° C | 78% | 1030.7 hPa | - | - | - | - |
| 1777700724 | 14.44° C | 78% | 1030.8 hPa | - | - | - | - |
| 1777700342 | 14.44° C | 77% | 1030.7 hPa | - | - | - | - |
| 1777699886 | 14.44° C | 77% | 1030.7 hPa | - | - | - | - |
| 1777697914 | 15.56° C | 75% | 1031.2 hPa | - | - | - | - |
| 1777696218 | 15.56° C | 75% | 1031 hPa | - | - | - | - |
| 1777694418 | 15.56° C | 75% | 1031.3 hPa | - | - | - | - |
| 1777692618 | 16.11° C | 75% | 1031.4 hPa | - | - | - | - |
| 1777690818 | 16.11° C | 75% | 1031.4 hPa | - | - | - | - |
| 1777689018 | 16.11° C | 75% | 1031.6 hPa | - | - | - | - |
| 1777687218 | 16.11° C | 75% | 1031.7 hPa | - | - | - | - |
| 1777685418 | 16.11° C | 75% | 1032 hPa | - | - | - | - |
| 1777683618 | 16.11° C | 75% | 1032.3 hPa | - | - | - | - |
| 1777681818 | 16.67° C | 75% | 1032.5 hPa | - | - | - | - |
| 1777680018 | 16.67° C | 76% | 1032.8 hPa | - | - | - | - |
| 1777678217 | 16.67° C | 76% | 1033.2 hPa | - | - | - | - |
| 1777676419 | 16.67° C | 76% | 1033.3 hPa | - | - | - | - |
| 1777674618 | 16.67° C | 76% | 1033.3 hPa | - | - | - | - |
* Rain since midnight (hover to see other rain measurements)
** Current wind speed in m/s (hover to see current wind gust speed)